| time (UTC) | temp F | wind direction | speed knots | gust knots | rain 1hr in | rain 24hr in | rain mn in | humidity % | barometer mb |
| 20260508154627 | 54 | 293 | 6.1 | 17.4 | 0.00 | 0.00 | 0.00 | 53 | 1004.7 |
| 20260508154116 | 54 | 293 | 4.3 | 18.2 | 0.00 | 0.00 | 0.00 | 54 | 1004.9 |
| 20260508153607 | 53 | 338 | 7.0 | 18.2 | 0.00 | 0.00 | 0.00 | 54 | 1005.1 |
| 20260508153056 | 53 | 315 | 6.1 | 13.9 | 0.00 | 0.00 | 0.00 | 55 | 1004.9 |
| 20260508152547 | 53 | 225 | 5.2 | 20.9 | 0.00 | 0.00 | 0.00 | 55 | 1005.1 |
| 20260508152036 | 52 | 293 | 9.6 | 20.9 | 0.00 | 0.00 | 0.00 | 55 | 1005.3 |
| 20260508151526 | 53 | 293 | 4.3 | 20.0 | 0.00 | 0.00 | 0.00 | 55 | 1005.4 |
| 20260508151028 | 52 | 315 | 7.8 | 17.4 | 0.00 | 0.00 | 0.00 | 55 | 1005.3 |
| 20260508145955 | 52 | 270 | 6.1 | 23.5 | 0.00 | 0.00 | 0.00 | 56 | 1005.5 |
| 20260508145445 | 52 | 270 | 8.7 | 18.2 | 0.00 | 0.00 | 0.00 | 56 | 1005.3 |
| 20260508144936 | 52 | 293 | 7.0 | 15.6 | 0.00 | 0.00 | 0.00 | 57 | 1005.5 |
| 20260508144425 | 51 | 270 | 6.1 | 20.9 | 0.00 | 0.00 | 0.00 | 58 | 1005.3 |
| 20260508143915 | 50 | 293 | 8.7 | 20.9 | 0.00 | 0.00 | 0.00 | 58 | 1005.4 |
| 20260508143405 | 50 | 248 | 9.6 | 21.7 | 0.00 | 0.00 | 0.00 | 59 | 1005.5 |
| 20260508142858 | 49 | 293 | 9.6 | 23.5 | 0.00 | 0.00 | 0.00 | 59 | 1005.4 |
| 20260508142346 | 49 | 248 | 3.5 | 23.5 | 0.00 | 0.00 | 0.00 | 60 | 1005.5 |
| 20260508141835 | 49 | 293 | 1.7 | 20.0 | 0.00 | 0.00 | 0.00 | 60 | 1005.5 |
| 20260508141337 | 48 | 248 | 9.6 | 19.1 | 0.00 | 0.00 | 0.00 | 61 | 1005.5 |
| 20260508140827 | 48 | 248 | 9.6 | 20.9 | 0.00 | 0.00 | 0.00 | 60 | 1005.5 |
| 20260508135245 | 48 | 248 | 9.6 | 23.5 | 0.00 | 0.00 | 0.00 | 61 | 1005.6 |
| 20260508134734 | 48 | 270 | 10.4 | 23.5 | 0.00 | 0.00 | 0.00 | 61 | 1005.5 |
| 20260508134225 | 48 | 293 | 11.3 | 23.5 | 0.00 | 0.00 | 0.00 | 60 | 1005.5 |
| 20260508133714 | 49 | 248 | 11.3 | 20.0 | 0.00 | 0.00 | 0.00 | 61 | 1005.5 |
| 20260508133203 | 48 | 293 | 9.6 | 23.5 | 0.00 | 0.00 | 0.00 | 61 | 1005.5 |
| 20260508132156 | 48 | 248 | 7.8 | 21.7 | 0.00 | 0.00 | 0.00 | 61 | 1005.4 |
| 20260508131640 | 48 | 293 | 10.4 | 26.1 | 0.00 | 0.00 | 0.00 | 62 | 1005.4 |
| 20260508131125 | 48 | 293 | 13.0 | 26.1 | 0.00 | 0.00 | 0.00 | 62 | 1005.5 |
| 20260508130614 | 48 | 270 | 9.6 | 25.2 | 0.00 | 0.00 | 0.00 | 62 | 1005.3 |
| 20260508130115 | 48 | 248 | 7.8 | 23.5 | 0.00 | 0.00 | 0.00 | 63 | 1005.5 |
| 20260508125553 | 48 | 270 | 10.4 | 20.9 | 0.00 | 0.00 | 0.00 | 63 | 1005.3 |
| 20260508124533 | 48 | 270 | 7.8 | 20.9 | 0.00 | 0.00 | 0.00 | 63 | 1005.0 |
| 20260508124024 | 48 | 225 | 5.2 | 20.0 | 0.00 | 0.00 | 0.00 | 63 | 1005.0 |
| 20260508123516 | 47 | 270 | 7.0 | 20.0 | 0.00 | 0.00 | 0.00 | 63 | 1005.2 |
| 20260508123009 | 47 | 248 | 10.4 | 18.2 | 0.00 | 0.00 | 0.00 | 64 | 1005.1 |
| 20260508122457 | 47 | 248 | 8.7 | 18.2 | 0.00 | 0.00 | 0.00 | 64 | 1005.0 |
| 20260508121943 | 47 | 270 | 11.3 | 18.2 | 0.00 | 0.00 | 0.00 | 64 | 1005.1 |
| 20260508121432 | 47 | 225 | 9.6 | 18.2 | 0.00 | 0.00 | 0.00 | 64 | 1005.1 |
| 20260508120923 | 47 | 338 | 8.7 | 18.2 | 0.00 | 0.00 | 0.00 | 64 | 1005.0 |
| 20260508120412 | 47 | 225 | 7.0 | 17.4 | 0.00 | 0.00 | 0.00 | 64 | 1005.0 |
| 20260508115905 | 47 | 293 | 6.1 | 18.2 | 0.00 | 0.00 | 0.00 | 65 | 1005.1 |
| 20260508115357 | 47 | 293 | 6.1 | 20.9 | 0.00 | 0.00 | 0.00 | 65 | 1004.9 |
| 20260508114844 | 47 | 293 | 7.0 | 20.9 | 0.00 | 0.00 | 0.00 | 65 | 1004.8 |
| 20260508114332 | 47 | 293 | 7.0 | 17.4 | 0.00 | 0.00 | 0.00 | 65 | 1004.9 |
| 20260508113823 | 47 | 315 | 3.5 | 15.6 | 0.00 | 0.00 | 0.00 | 66 | 1004.7 |
| 20260508113311 | 47 | 225 | 6.1 | 20.9 | 0.00 | 0.00 | 0.00 | 65 | 1004.6 |
| 20260508112800 | 47 | 293 | 9.6 | 20.9 | 0.00 | 0.00 | 0.00 | 65 | 1004.6 |
| 20260508112251 | 47 | 270 | 7.8 | 20.9 | 0.00 | 0.00 | 0.00 | 65 | 1004.6 |
| 20260508111741 | 47 | 315 | 7.0 | 20.0 | 0.00 | 0.00 | 0.00 | 65 | 1004.5 |
| 20260508111232 | 47 | 293 | 7.8 | 20.0 | 0.00 | 0.00 | 0.00 | 65 | 1004.3 |
| 20260508110722 | 47 | 0 | 6.1 | 17.4 | 0.00 | 0.00 | 0.00 | 65 | 1004.2 |
| 20260508110211 | 47 | 315 | 5.2 | 19.1 | 0.00 | 0.00 | 0.00 | 64 | 1004.3 |
| 20260508105701 | 47 | 225 | 7.8 | 19.1 | 0.00 | 0.00 | 0.00 | 64 | 1004.3 |
| 20260508105151 | 47 | 248 | 9.6 | 15.6 | 0.00 | 0.00 | 0.00 | 64 | 1003.9 |
| 20260508104642 | 47 | 248 | 7.0 | 18.2 | 0.00 | 0.00 | 0.00 | 64 | 1004.0 |
| 20260508104130 | 47 | 315 | 5.2 | 18.2 | 0.00 | 0.00 | 0.00 | 64 | 1003.9 |
| 20260508103111 | 47 | 270 | 7.0 | 18.2 | 0.00 | 0.00 | 0.00 | 63 | 1003.7 |
| 20260508102559 | 47 | 270 | 6.1 | 18.2 | 0.00 | 0.00 | 0.00 | 63 | 1003.8 |
| 20260508102049 | 47 | 270 | 4.3 | 21.7 | 0.00 | 0.00 | 0.00 | 63 | 1003.9 |
| 20260508101540 | 47 | 315 | 7.0 | 21.7 | 0.00 | 0.00 | 0.00 | 62 | 1003.8 |
| 20260508101030 | 47 | 315 | 10.4 | 18.2 | 0.00 | 0.00 | 0.00 | 62 | 1003.6 |
| 20260508100520 | 47 | 293 | 6.1 | 17.4 | 0.00 | 0.00 | 0.00 | 61 | 1003.5 |
| 20260508100010 | 47 | 248 | 7.8 | 14.8 | 0.00 | 0.00 | 0.00 | 61 | 1003.4 |
| 20260508095459 | 47 | 270 | 7.0 | 18.2 | 0.00 | 0.00 | 0.00 | 60 | 1003.3 |
| 20260508094950 | 47 | 293 | 8.7 | 18.2 | 0.00 | 0.00 | 0.00 | 60 | 1003.4 |
| 20260508094435 | 47 | 315 | 7.0 | 15.6 | 0.00 | 0.00 | 0.00 | 60 | 1003.3 |
| 20260508093929 | 47 | 248 | 7.0 | 13.9 | 0.00 | 0.00 | 0.00 | 60 | 1003.3 |
| 20260508092908 | 47 | 225 | 6.1 | 23.5 | 0.00 | 0.00 | 0.00 | 59 | 1003.1 |
| 20260508091849 | 47 | 270 | 7.8 | 19.1 | 0.00 | 0.00 | 0.00 | 59 | 1002.8 |
| 20260508090828 | 47 | 293 | 7.0 | 17.4 | 0.00 | 0.00 | 0.00 | 59 | 1002.8 |
| 20260508090318 | 47 | 248 | 6.1 | 15.6 | 0.00 | 0.00 | 0.00 | 59 | 1002.9 |
| 20260508085809 | 47 | 338 | 9.6 | 21.7 | 0.00 | 0.00 | 0.00 | 59 | 1002.9 |
| 20260508085257 | 47 | 248 | 9.6 | 21.7 | 0.00 | 0.00 | 0.00 | 59 | 1002.8 |
| 20260508084752 | 47 | 293 | 6.1 | 20.0 | 0.00 | 0.00 | 0.00 | 59 | 1002.9 |
| 20260508084237 | 47 | 293 | 7.0 | 20.0 | 0.00 | 0.00 | 0.00 | 60 | 1003.0 |
| 20260508083732 | 47 | 338 | 6.1 | 18.2 | 0.00 | 0.00 | 0.00 | 60 | 1002.9 |
| 20260508083217 | 47 | 315 | 7.0 | 18.2 | 0.00 | 0.00 | 0.00 | 60 | 1002.8 |
| 20260508082709 | 47 | 293 | 7.8 | 13.9 | 0.00 | 0.00 | 0.00 | 60 | 1002.7 |
| 20260508082216 | 47 | 338 | 3.5 | 13.9 | 0.00 | 0.00 | 0.00 | 60 | 1002.9 |
| 20260508081647 | 47 | 293 | 7.0 | 20.0 | 0.00 | 0.00 | 0.00 | 60 | 1002.7 |
| 20260508081139 | 47 | 293 | 4.3 | 20.0 | 0.00 | 0.00 | 0.00 | 60 | 1002.5 |
| 20260508080630 | 47 | 293 | 7.0 | 15.6 | 0.00 | 0.00 | 0.00 | 59 | 1002.6 |
| 20260508075056 | 48 | 270 | 7.0 | 15.6 | 0.00 | 0.00 | 0.00 | 59 | 1002.6 |
| 20260508074037 | 48 | 315 | 7.0 | 20.9 | 0.00 | 0.00 | 0.00 | 59 | 1002.5 |
| 20260508073526 | 48 | 293 | 7.0 | 20.9 | 0.00 | 0.00 | 0.00 | 59 | 1002.6 |
| 20260508073027 | 48 | 270 | 4.3 | 20.9 | 0.00 | 0.00 | 0.00 | 60 | 1002.8 |
| 20260508072510 | 48 | 293 | 5.2 | 20.9 | 0.00 | 0.00 | 0.00 | 60 | 1002.8 |
| 20260508071956 | 48 | 293 | 2.6 | 13.9 | 0.00 | 0.00 | 0.00 | 61 | 1002.6 |
| 20260508071446 | 48 | 270 | 3.5 | 18.2 | 0.00 | 0.00 | 0.00 | 62 | 1002.5 |
| 20260508070937 | 48 | 315 | 4.3 | 18.2 | 0.00 | 0.00 | 0.00 | 62 | 1002.4 |
| 20260508070424 | 48 | 315 | 6.1 | 0.0 | 0.00 | 0.00 | 0.00 | 62 | 1002.5 |
| 20260508070217 | 48 | 315 | 7.8 | 0.0 | 0.00 | 0.00 | 0.00 | 63 | 1002.5 |
| 20260508065555 | 48 | 293 | 7.0 | 19.1 | 0.00 | 0.00 | 0.00 | 63 | 1002.4 |
| 20260508065035 | 48 | 270 | 6.1 | 17.4 | 0.00 | 0.00 | 0.00 | 64 | 1002.6 |
| 20260508064525 | 48 | 293 | 5.2 | 18.2 | 0.00 | 0.00 | 0.00 | 65 | 1002.7 |
| 20260508064015 | 49 | 293 | 7.0 | 18.2 | 0.00 | 0.00 | 0.00 | 66 | 1002.6 |
| 20260508063505 | 49 | 293 | 6.1 | 17.4 | 0.00 | 0.00 | 0.00 | 67 | 1002.7 |
| 20260508062955 | 49 | 315 | 3.5 | 14.8 | 0.00 | 0.00 | 0.00 | 67 | 1002.9 |
| 20260508062445 | 49 | 315 | 3.5 | 18.2 | 0.00 | 0.00 | 0.00 | 70 | 1002.7 |
| 20260508060404 | 49 | 315 | 5.2 | 14.8 | 0.00 | 0.00 | 0.00 | 70 | 1003.1 |
| 20260508055854 | 49 | 293 | 6.1 | 13.0 | 0.00 | 0.00 | 0.00 | 70 | 1003.2 |
| 20260508055343 | 49 | 315 | 3.5 | 17.4 | 0.00 | 0.00 | 0.00 | 69 | 1003.4 |
| 20260508054834 | 49 | 293 | 7.0 | 17.4 | 0.00 | 0.00 | 0.00 | 68 | 1003.4 |
| 20260508054324 | 49 | 315 | 7.0 | 14.8 | 0.00 | 0.00 | 0.00 | 68 | 1003.5 |
| 20260508053303 | 50 | 293 | 4.3 | 14.8 | 0.00 | 0.00 | 0.00 | 68 | 1003.5 |
| 20260508052754 | 49 | 293 | 4.3 | 13.0 | 0.00 | 0.00 | 0.00 | 69 | 1003.5 |
| 20260508052243 | 50 | 293 | 4.3 | 13.0 | 0.00 | 0.00 | 0.00 | 68 | 1003.5 |
| 20260508051736 | 50 | 315 | 4.3 | 13.9 | 0.00 | 0.00 | 0.00 | 68 | 1003.4 |
| 20260508051223 | 50 | 315 | 5.2 | 13.9 | 0.00 | 0.00 | 0.00 | 68 | 1003.7 |
| 20260508050714 | 50 | 293 | 7.0 | 13.9 | 0.00 | 0.00 | 0.00 | 68 | 1003.4 |
| 20260508050203 | 50 | 315 | 3.5 | 13.0 | 0.00 | 0.00 | 0.00 | 67 | 1003.4 |
| 20260508045653 | 50 | 293 | 4.3 | 12.2 | 0.00 | 0.00 | 0.00 | 65 | 1003.2 |
| 20260508045142 | 51 | 248 | 3.5 | 17.4 | 0.00 | 0.00 | 0.00 | 64 | 1003.2 |
| 20260508044122 | 51 | 270 | 8.7 | 23.5 | 0.00 | 0.00 | 0.00 | 62 | 1003.2 |
| 20260508043111 | 51 | 293 | 9.6 | 19.1 | 0.00 | 0.00 | 0.00 | 62 | 1003.1 |
| 20260508042552 | 51 | 248 | 10.4 | 19.1 | 0.00 | 0.00 | 0.00 | 63 | 1003.1 |
| 20260508042041 | 51 | 225 | 8.7 | 17.4 | 0.00 | 0.00 | 0.00 | 64 | 1003.2 |
| 20260508041541 | 51 | 248 | 7.0 | 23.5 | 0.00 | 0.00 | 0.00 | 65 | 1003.2 |
| 20260508041022 | 51 | 225 | 13.0 | 23.5 | 0.00 | 0.00 | 0.00 | 65 | 1003.1 |
| 20260508040511 | 50 | 293 | 12.2 | 20.9 | 0.00 | 0.00 | 0.00 | 66 | 1003.1 |
| 20260508035451 | 50 | 293 | 3.5 | 19.1 | 0.00 | 0.00 | 0.00 | 68 | 1002.8 |
| 20260508034942 | 50 | 203 | 4.3 | 19.1 | 0.00 | 0.00 | 0.00 | 68 | 1003.1 |
| 20260508034430 | 50 | 315 | 9.6 | 19.1 | 0.00 | 0.00 | 0.00 | 68 | 1003.0 |
| 20260508033411 | 50 | 270 | 7.0 | 21.7 | 0.00 | 0.00 | 0.00 | 69 | 1003.0 |
| 20260508032900 | 50 | 248 | 7.0 | 21.7 | 0.00 | 0.00 | 0.00 | 69 | 1002.9 |
| 20260508031329 | 51 | 315 | 4.3 | 21.7 | 0.00 | 0.00 | 0.00 | 69 | 1002.9 |
| 20260508030310 | 51 | 270 | 8.7 | 19.1 | 0.00 | 0.00 | 0.00 | 69 | 1002.9 |
| 20260508025805 | 51 | 248 | 10.4 | 27.8 | 0.00 | 0.00 | 1.42 | 69 | 1002.8 |
| 20260508024740 | 51 | 293 | 9.6 | 21.7 | 0.00 | 0.00 | 1.42 | 70 | 1003.0 |
| 20260508024229 | 51 | 248 | 8.7 | 26.1 | 0.00 | 0.00 | 1.42 | 71 | 1002.8 |
| 20260508023720 | 50 | 293 | 7.0 | 26.1 | 0.00 | 0.00 | 1.42 | 71 | 1002.6 |
| 20260508023210 | 50 | 270 | 7.0 | 23.5 | 0.00 | 0.00 | 1.42 | 73 | 1002.8 |
| 20260508022700 | 50 | 225 | 9.6 | 23.5 | 0.00 | 0.00 | 1.42 | 72 | 1002.7 |
| 20260508022148 | 50 | 225 | 8.7 | 23.5 | 0.00 | 0.00 | 1.42 | 73 | 1002.7 |
| 20260508021129 | 50 | 293 | 7.8 | 23.5 | 0.00 | 0.00 | 1.42 | 74 | 1002.8 |
| 20260508020619 | 50 | 248 | 7.0 | 23.5 | 0.00 | 0.00 | 1.42 | 75 | 1002.9 |
| 20260508020114 | 50 | 225 | 9.6 | 20.9 | 0.00 | 0.00 | 1.42 | 76 | 1002.7 |
| 20260508015559 | 50 | 248 | 9.6 | 20.9 | 0.00 | 0.00 | 1.42 | 76 | 1002.5 |
| 20260508015048 | 49 | 293 | 13.0 | 23.5 | 0.00 | 0.00 | 1.42 | 77 | 1002.7 |
| 20260508014538 | 49 | 225 | 9.6 | 23.5 | 0.00 | 0.00 | 1.42 | 78 | 1002.5 |
| 20260508014029 | 49 | 225 | 8.7 | 23.5 | 0.00 | 0.00 | 1.42 | 79 | 1002.5 |
| 20260508013522 | 49 | 225 | 7.0 | 25.2 | 0.00 | 0.00 | 1.42 | 78 | 1002.6 |
| 20260508013008 | 49 | 315 | 9.6 | 25.2 | 0.00 | 0.00 | 1.42 | 78 | 1002.5 |
| 20260508012458 | 50 | 270 | 11.3 | 25.2 | 0.00 | 0.00 | 1.42 | 78 | 1002.4 |
| 20260508011948 | 50 | 293 | 13.9 | 23.5 | 0.00 | 0.00 | 1.42 | 79 | 1002.5 |
| 20260508011438 | 50 | 293 | 10.4 | 20.9 | 0.00 | 0.00 | 1.42 | 80 | 1002.7 |
| 20260508010927 | 50 | 248 | 10.4 | 21.7 | 0.00 | 0.00 | 1.42 | 80 | 1002.9 |
| 20260508010417 | 50 | 248 | 9.6 | 21.7 | 0.00 | 0.00 | 1.42 | 80 | 1002.6 |
| 20260508005357 | 50 | 225 | 7.8 | 23.5 | 0.00 | 0.00 | 1.42 | 79 | 1002.5 |
| 20260508004847 | 51 | 248 | 13.0 | 26.1 | 0.00 | 0.00 | 1.42 | 77 | 1002.8 |
| 20260508004337 | 51 | 270 | 6.1 | 26.1 | 0.00 | 0.00 | 1.42 | 76 | 1002.8 |
| 20260508003828 | 52 | 270 | 13.0 | 26.1 | 0.00 | 0.00 | 1.42 | 75 | 1003.1 |
| 20260508003330 | 52 | 270 | 7.8 | 26.1 | 0.00 | 0.00 | 1.42 | 76 | 1003.2 |
| 20260508002807 | 52 | 270 | 9.6 | 26.1 | 0.00 | 0.00 | 1.42 | 76 | 1003.0 |
| 20260508002256 | 52 | 248 | 6.1 | 20.0 | 0.00 | 0.00 | 1.42 | 75 | 1003.0 |
| 20260508001746 | 52 | 0 | 7.0 | 17.4 | 0.00 | 0.00 | 1.42 | 75 | 1003.2 |
| 20260508001236 | 52 | 270 | 6.1 | 20.9 | 0.00 | 0.00 | 1.42 | 74 | 1003.4 |
| 20260508000726 | 52 | 248 | 7.0 | 23.5 | 0.00 | 0.00 | 1.42 | 75 | 1003.3 |
| 20260507235156 | 52 | 315 | 4.3 | 17.4 | 0.00 | 0.00 | 1.42 | 79 | 1003.3 |
| 20260507234645 | 52 | 293 | 7.0 | 17.4 | 0.00 | 0.00 | 1.42 | 79 | 1003.4 |
| 20260507234136 | 52 | 270 | 9.6 | 18.2 | 0.00 | 0.00 | 1.42 | 79 | 1003.2 |
| 20260507233626 | 52 | 315 | 8.7 | 19.1 | 0.00 | 0.00 | 1.42 | 78 | 1003.3 |
| 20260507233129 | 53 | 248 | 10.4 | 19.1 | 0.00 | 0.00 | 1.42 | 77 | 1003.3 |
| 20260507232605 | 53 | 270 | 9.6 | 18.2 | 0.00 | 0.00 | 1.42 | 77 | 1003.4 |
| 20260507232055 | 53 | 315 | 4.3 | 20.0 | 0.00 | 0.00 | 1.42 | 77 | 1003.2 |
| 20260507231544 | 53 | 248 | 8.7 | 20.0 | 0.00 | 0.00 | 1.42 | 77 | 1003.2 |
| 20260507231035 | 53 | 270 | 7.0 | 20.0 | 0.00 | 0.00 | 1.42 | 76 | 1003.5 |
| 20260507230525 | 53 | 293 | 3.5 | 20.0 | 0.00 | 0.00 | 1.42 | 76 | 1003.1 |
| 20260507230017 | 53 | 270 | 9.6 | 20.0 | 0.00 | 0.00 | 1.42 | 75 | 1003.2 |
| 20260507224954 | 53 | 293 | 4.3 | 12.2 | 0.00 | 0.00 | 1.42 | 77 | 1003.3 |
| 20260507224445 | 53 | 293 | 5.2 | 15.6 | 0.00 | 0.00 | 1.42 | 77 | 1003.1 |
| 20260507223424 | 53 | 293 | 5.2 | 15.6 | 0.00 | 0.00 | 1.42 | 78 | 1002.8 |
| 20260507222914 | 53 | 315 | 3.5 | 14.8 | 0.00 | 0.00 | 1.42 | 78 | 1002.8 |
| 20260507221854 | 53 | 248 | 8.7 | 18.2 | 0.00 | 0.00 | 1.42 | 77 | 1002.5 |
| 20260507221343 | 53 | 293 | 9.6 | 18.2 | 0.00 | 0.00 | 1.42 | 77 | 1002.6 |
| 20260507220834 | 53 | 338 | 5.2 | 15.6 | 0.00 | 0.00 | 1.42 | 76 | 1002.4 |
| 20260507220323 | 54 | 270 | 3.5 | 17.4 | 0.00 | 0.00 | 1.42 | 75 | 1002.0 |
| 20260507215813 | 54 | 338 | 7.0 | 20.9 | 0.00 | 0.00 | 1.42 | 75 | 1001.7 |
| 20260507214752 | 54 | 293 | 11.3 | 18.2 | 0.00 | 0.00 | 1.42 | 74 | 1001.9 |
| 20260507214243 | 54 | 225 | 7.0 | 15.6 | 0.00 | 0.00 | 1.42 | 74 | 1001.6 |
| 20260507213733 | 54 | 293 | 4.3 | 19.1 | 0.00 | 0.00 | 1.42 | 75 | 1002.0 |
| 20260507213223 | 54 | 270 | 8.7 | 19.1 | 0.00 | 0.00 | 1.42 | 74 | 1002.1 |
| 20260507212713 | 54 | 248 | 4.3 | 19.1 | 0.00 | 0.00 | 1.42 | 75 | 1002.2 |
| 20260507212202 | 54 | 225 | 8.7 | 25.2 | 0.00 | 0.00 | 1.42 | 76 | 1002.3 |
| 20260507211155 | 54 | 293 | 6.1 | 18.2 | 0.00 | 0.00 | 1.42 | 76 | 1002.4 |
| 20260507210122 | 55 | 248 | 11.3 | 18.2 | 0.00 | 0.00 | 1.42 | 75 | 1002.3 |
| 20260507205612 | 55 | 225 | 3.5 | 15.6 | 0.00 | 0.00 | 1.42 | 75 | 1002.2 |
| 20260507205102 | 55 | 270 | 3.5 | 15.6 | 0.00 | 0.00 | 1.42 | 74 | 1002.2 |
| 20260507204041 | 56 | 248 | 7.0 | 18.2 | 0.00 | 0.00 | 1.42 | 73 | 1001.7 |
| 20260507203531 | 56 | 248 | 4.3 | 13.9 | 0.00 | 0.00 | 1.42 | 73 | 1002.1 |
| 20260507203021 | 56 | 293 | 3.5 | 19.1 | 0.00 | 0.00 | 1.42 | 74 | 1001.6 |
| 20260507202511 | 56 | 270 | 7.0 | 19.1 | 0.00 | 0.00 | 1.42 | 73 | 1001.5 |
| 20260507202001 | 56 | 248 | 7.0 | 15.6 | 0.00 | 0.00 | 1.42 | 73 | 1001.7 |
| 20260507201451 | 56 | 315 | 8.7 | 15.6 | 0.00 | 0.00 | 1.42 | 72 | 1001.7 |
| 20260507200940 | 56 | 293 | 7.0 | 18.2 | 0.00 | 0.00 | 1.42 | 72 | 1001.4 |
| 20260507200430 | 56 | 293 | 5.2 | 21.7 | 0.00 | 0.00 | 1.42 | 72 | 1001.3 |
| 20260507195920 | 56 | 248 | 8.7 | 21.7 | 0.00 | 0.00 | 1.42 | 71 | 1001.2 |
| 20260507195410 | 56 | 293 | 9.6 | 20.9 | 0.00 | 0.00 | 1.42 | 71 | 1000.9 |
| 20260507194900 | 56 | 248 | 5.2 | 20.9 | 0.00 | 0.00 | 1.42 | 71 | 1000.4 |
| 20260507194350 | 56 | 293 | 11.3 | 23.5 | 0.00 | 0.00 | 1.42 | 71 | 1000.6 |
| 20260507192820 | 56 | 270 | 6.1 | 20.0 | 0.00 | 0.00 | 1.42 | 71 | 1000.0 |
| 20260507192310 | 56 | 248 | 10.4 | 20.0 | 0.00 | 0.00 | 1.42 | 71 | 1000.2 |
| 20260507191800 | 56 | 270 | 7.8 | 19.1 | 0.00 | 0.00 | 1.42 | 71 | 999.6 |
| 20260507190740 | 56 | 293 | 7.8 | 20.9 | 0.00 | 0.00 | 1.42 | 70 | 1000.5 |
| 20260507190242 | 56 | 225 | 7.0 | 20.9 | 0.00 | 0.00 | 1.42 | 70 | 1000.9 |
| 20260507185209 | 57 | 90 | 9.6 | 15.6 | 0.00 | 0.00 | 1.42 | 69 | 1000.9 |
| 20260507184659 | 57 | 225 | 1.7 | 15.6 | 0.00 | 0.00 | 1.42 | 69 | 1001.2 |
| 20260507184150 | 57 | 225 | 5.2 | 15.6 | 0.00 | 0.00 | 1.42 | 68 | 1001.6 |
| 20260507183639 | 57 | 248 | 7.0 | 20.0 | 0.00 | 0.00 | 1.42 | 67 | 1002.1 |
| 20260507183129 | 57 | 225 | 8.7 | 20.0 | 0.00 | 0.00 | 1.42 | 67 | 1002.2 |
| 20260507182106 | 58 | 293 | 3.5 | 17.4 | 0.00 | 0.00 | 1.42 | 66 | 1002.3 |
| 20260507181556 | 58 | 248 | 3.5 | 14.8 | 0.00 | 0.00 | 1.42 | 66 | 1002.4 |
| 20260507181048 | 58 | 315 | 5.2 | 14.8 | 0.00 | 0.00 | 1.42 | 65 | 1002.2 |
| 20260507180551 | 58 | 293 | 4.3 | 13.9 | 0.00 | 0.00 | 1.42 | 65 | 1002.5 |
| 20260507180033 | 58 | 225 | 7.0 | 13.9 | 0.00 | 0.00 | 1.42 | 65 | 1003.0 |
| 20260507173950 | 58 | 293 | 4.3 | 17.4 | 0.00 | 0.00 | 1.42 | 65 | 1003.4 |
| 20260507173438 | 57 | 293 | 7.0 | 17.4 | 0.00 | 0.00 | 1.42 | 65 | 1003.0 |
| 20260507172927 | 57 | 315 | 7.0 | 17.4 | 0.00 | 0.00 | 1.42 | 65 | 1003.0 |
| 20260507172417 | 57 | 270 | 5.2 | 20.0 | 0.00 | 0.00 | 1.42 | 65 | 1002.9 |
| 20260507171907 | 57 | 315 | 7.0 | 20.0 | 0.00 | 0.00 | 1.42 | 65 | 1002.7 |
| 20260507171357 | 57 | 315 | 4.3 | 14.8 | 0.00 | 0.00 | 1.42 | 67 | 1002.7 |
| 20260507170847 | 57 | 315 | 7.0 | 15.6 | 0.00 | 0.00 | 1.42 | 66 | 1002.2 |
| 20260507165826 | 57 | 270 | 7.0 | 17.4 | 0.00 | 0.00 | 1.42 | 66 | 1001.8 |
| 20260507165316 | 57 | 338 | 7.8 | 17.4 | 0.00 | 0.00 | 1.42 | 66 | 1001.5 |
| 20260507164257 | 57 | 338 | 3.5 | 18.2 | 0.00 | 0.00 | 1.42 | 67 | 1001.2 |
| 20260507163237 | 57 | 293 | 4.3 | 12.2 | 0.00 | 0.00 | 1.42 | 69 | 1000.9 |
| 20260507162726 | 56 | 293 | 3.5 | 12.2 | 0.00 | 0.00 | 1.42 | 69 | 1001.0 |
| 20260507162216 | 56 | 270 | 6.1 | 13.9 | 0.00 | 0.00 | 1.42 | 69 | 1001.6 |
| 20260507161706 | 56 | 293 | 4.3 | 13.9 | 0.00 | 0.00 | 1.42 | 69 | 1002.2 |
| 20260507161156 | 56 | 293 | 3.5 | 13.9 | 0.00 | 0.00 | 1.42 | 69 | 1002.4 |
| 20260507160646 | 56 | 248 | 4.3 | 14.8 | 0.00 | 0.00 | 1.42 | 69 | 1002.2 |
| 20260507160136 | 56 | 270 | 8.7 | 17.4 | 0.00 | 0.00 | 1.42 | 68 | 1002.8 |
| 20260507155626 | 56 | 315 | 7.0 | 17.4 | 0.00 | 0.00 | 1.42 | 69 | 1002.9 |
| 20260507155115 | 56 | 293 | 7.0 | 13.0 | 0.00 | 0.00 | 1.42 | 69 | 1002.8 |